Date String (YYYY-MM-DD hh:mm:ss) UTC,Instrument flags,Ambient pressure (hPa),Sample flow (lpm),Bypass flow (lpm),Sample temperature (°C),Ambient temperature (°C),ASC tube jacket temperature (°C),LED temperature (°C),Box temperature (°C),Sample RH (%),Span deviation,Mass concentration (μg/m³),Mass concentration (μg/m³),Mass concentration (μg/m³)
DateTimeUTC,F1_M11,P_M11,Q1_M11,Q2_M11,T1_M11,T2_M11,T3_M11,T4_M11,T5_M11,U1_M11,ZSPAN_M11,X0_M11,X2_M11,X1_M11
2022-07-04 02:00:00,,0825.9,5.00,0.00,29.2,27.7,00.0,38.0,31.1,26.1,0000.0,0004.44,0002.37,0001.77
2022-07-04 02:01:00,,0825.8,5.00,0.00,29.2,27.9,00.0,38.0,31.2,26.1,0000.0,0005.49,0002.38,0001.78
2022-07-04 02:02:00,,0825.8,5.00,0.00,29.3,28.0,00.0,38.0,31.2,25.8,0000.0,0005.68,0002.37,0001.78
2022-07-04 02:03:00,,0826.2,5.00,0.00,29.3,28.1,00.0,38.0,31.3,25.1,0000.0,0006.25,0002.35,0001.76
2022-07-04 02:04:00,,0825.7,4.99,0.00,29.3,28.2,00.0,38.0,31.3,25.0,0000.0,0006.22,0002.31,0001.74
2022-07-04 02:05:00,,0825.8,5.00,0.00,29.4,28.3,00.0,38.1,31.3,25.0,0000.0,0006.29,0002.29,0001.73
2022-07-04 02:06:00,,0826.0,5.01,0.00,29.4,28.4,00.0,38.1,31.4,24.8,0000.0,0006.30,0002.28,0001.71
2022-07-04 02:07:00,,0826.2,5.00,0.00,29.4,28.5,00.0,38.1,31.4,24.6,0000.0,0006.39,0002.29,0001.69
2022-07-04 02:08:00,,0825.9,5.00,0.00,29.5,28.5,00.0,38.1,31.5,25.1,0000.0,0006.40,0002.30,0001.68
2022-07-04 02:09:00,,0825.8,5.00,0.00,29.5,28.1,00.0,38.1,31.4,25.2,0000.0,0006.24,0002.25,0001.67
2022-07-04 02:10:00,,0825.8,5.01,0.00,29.5,27.5,00.0,38.1,31.3,24.7,0000.0,0006.27,0002.15,0001.65
2022-07-04 02:11:00,,0825.8,5.00,0.00,29.4,27.4,00.0,38.1,31.2,24.7,0000.0,0006.70,0002.05,0001.63
2022-07-04 02:12:00,,0825.7,5.00,0.00,29.4,27.4,00.0,38.1,31.2,24.9,0000.0,0005.08,0002.06,0001.62
2022-07-04 02:13:00,,0826.0,5.00,0.00,29.3,27.5,00.0,38.1,31.2,25.1,0000.0,0004.93,0002.05,0001.60
2022-07-04 02:14:00,,0826.1,4.99,0.00,29.3,27.7,00.0,38.1,31.2,24.9,0000.0,0004.09,0002.03,0001.59
2022-07-04 02:15:00,,0825.8,5.01,0.00,29.3,27.8,00.0,38.1,31.3,24.7,0000.0,0004.04,0002.02,0001.57
2022-07-04 02:16:00,,0825.7,5.01,0.00,29.4,28.0,00.0,38.1,31.3,24.2,0000.0,0003.95,0002.00,0001.53
2022-07-04 02:17:00,,0825.7,4.99,0.00,29.4,28.1,00.0,38.1,31.3,24.6,0000.0,0003.90,0001.96,0001.50
2022-07-04 02:18:00,,0825.7,4.99,0.00,29.4,28.2,00.0,38.1,31.4,24.5,0000.0,0003.79,0001.92,0001.47
2022-07-04 02:19:00,,0825.7,5.00,0.00,29.4,28.3,00.0,38.1,31.4,24.0,0000.0,0003.80,0001.90,0001.44
2022-07-04 02:20:00,,0825.7,5.01,0.00,29.5,28.4,00.0,38.2,31.5,24.3,0000.0,0004.85,0001.91,0001.39
2022-07-04 02:21:00,,0825.7,5.00,0.00,29.5,28.5,00.0,38.2,31.5,24.4,0000.0,0005.12,0001.89,0001.36
2022-07-04 02:22:00,,0825.7,5.00,0.00,29.5,28.5,00.0,38.2,31.5,24.2,0000.0,0004.69,0001.88,0001.34
2022-07-04 02:23:00,,0825.6,5.00,0.00,29.5,27.9,00.0,38.2,31.4,24.2,0000.0,0004.63,0001.82,0001.30
2022-07-04 02:24:00,,0825.6,5.00,0.00,29.5,27.1,00.0,38.1,31.3,24.0,0000.0,0004.60,0001.79,0001.26
2022-07-04 02:25:00,,0825.7,4.99,0.00,29.4,26.8,00.0,38.1,31.2,24.0,0000.0,0004.60,0001.78,0001.23
2022-07-04 02:26:00,,0825.7,5.01,0.00,29.3,26.9,00.0,38.1,31.1,24.3,0000.0,0004.43,0001.70,0001.21
2022-07-04 02:27:00,,0825.7,5.00,0.00,29.3,27.0,00.0,38.1,31.0,24.6,0000.0,0004.46,0001.69,0001.19
2022-07-04 02:28:00,,0825.7,5.00,0.00,29.3,27.2,00.0,38.0,31.0,24.8,0000.0,0004.53,0001.70,0001.19
2022-07-04 02:29:00,,0825.7,4.99,0.00,29.2,27.4,00.0,38.0,31.1,24.7,0000.0,0004.53,0001.70,0001.17
2022-07-04 02:30:00,,0825.7,5.00,0.00,29.3,27.5,00.0,38.0,31.1,24.9,0000.0,0004.41,0001.66,0001.16
2022-07-04 02:31:00,,0825.6,5.01,0.00,29.3,27.7,00.0,38.0,31.2,24.8,0000.0,0003.63,0001.61,0001.15
2022-07-04 02:32:00,,0825.6,5.00,0.00,29.3,27.9,00.0,38.0,31.2,24.6,0000.0,0002.80,0001.56,0001.14
2022-07-04 02:33:00,,0825.6,4.99,0.00,29.3,28.0,00.0,38.1,31.3,24.5,0000.0,0002.48,0001.54,0001.13
2022-07-04 02:34:00,,0825.6,5.00,0.00,29.3,28.1,00.0,38.1,31.3,24.4,0000.0,0002.49,0001.55,0001.13
2022-07-04 02:35:00,,0825.6,4.99,0.00,29.4,28.2,00.0,38.1,31.3,24.5,0000.0,0002.40,0001.52,0001.13
2022-07-04 02:36:00,,0825.6,5.00,0.00,29.4,28.3,00.0,38.1,31.4,24.5,0000.0,0002.25,0001.45,0001.11
2022-07-04 02:37:00,,0825.6,5.00,0.00,29.4,28.4,00.0,38.1,31.4,24.4,0000.0,0002.33,0001.45,0001.11
2022-07-04 02:38:00,,0825.6,4.99,0.00,29.5,28.5,00.0,38.1,31.5,24.2,0000.0,0002.32,0001.43,0001.11
2022-07-04 02:39:00,,0825.6,5.01,0.00,29.5,28.6,00.0,38.2,31.5,24.2,0000.0,0002.19,0001.40,0001.11
2022-07-04 02:40:00,,0825.5,5.00,0.00,29.5,28.6,00.0,38.2,31.5,24.2,0000.0,0003.02,0001.38,0001.11
2022-07-04 02:41:00,,0825.5,5.00,0.00,29.5,28.1,00.0,38.1,31.5,24.1,0000.0,0003.38,0001.39,0001.10
2022-07-04 02:42:00,,0825.5,5.01,0.00,29.5,27.2,00.0,38.1,31.3,24.0,0000.0,0003.42,0001.41,0001.12
2022-07-04 02:43:00,,0825.5,5.00,0.00,29.4,26.8,00.0,38.1,31.2,24.1,0000.0,0003.46,0001.43,0001.13
2022-07-04 02:44:00,,0825.5,5.00,0.00,29.3,26.8,00.0,38.1,31.1,24.4,0000.0,0003.45,0001.42,0001.13
2022-07-04 02:45:00,,0825.4,4.99,0.00,29.3,26.9,00.0,38.0,31.0,24.6,0000.0,0003.48,0001.43,0001.13
2022-07-04 02:46:00,,0825.4,5.00,0.00,29.2,27.1,00.0,38.0,31.0,24.5,0000.0,0003.56,0001.46,0001.13
2022-07-04 02:47:00,,0825.5,5.00,0.00,29.2,27.3,00.0,38.0,31.1,24.7,0000.0,0003.68,0001.50,0001.14
2022-07-04 02:48:00,,0825.5,5.00,0.00,29.2,27.4,00.0,38.0,31.1,24.6,0000.0,0003.74,0001.57,0001.14
2022-07-04 02:49:00,,0825.4,5.01,0.00,29.2,27.6,00.0,38.0,31.1,24.5,0000.0,0003.73,0001.60,0001.15
2022-07-04 02:50:00,,0825.4,5.00,0.00,29.2,27.8,00.0,38.0,31.2,24.4,0000.0,0003.72,0001.60,0001.15
2022-07-04 02:51:00,,0825.4,4.99,0.00,29.3,27.9,00.0,38.0,31.2,24.3,0000.0,0002.90,0001.58,0001.15
2022-07-04 02:52:00,,0825.4,5.01,0.00,29.3,28.0,00.0,38.0,31.2,24.3,0000.0,0002.56,0001.62,0001.17
2022-07-04 02:53:00,,0825.4,5.00,0.00,29.3,28.1,00.0,38.1,31.3,24.2,0000.0,0002.48,0001.59,0001.17
2022-07-04 02:54:00,,0825.4,5.00,0.00,29.3,28.2,00.0,38.1,31.3,24.2,0000.0,0002.62,0001.63,0001.17
2022-07-04 02:55:00,,0825.4,5.01,0.00,29.4,28.3,00.0,38.1,31.4,24.1,0000.0,0002.74,0001.68,0001.18
2022-07-04 02:56:00,,0825.4,5.01,0.00,29.4,28.4,00.0,38.1,31.4,24.1,0000.0,0002.77,0001.69,0001.20
2022-07-04 02:57:00,,0825.4,4.99,0.00,29.4,28.5,00.0,38.1,31.4,24.1,0000.0,0002.88,0001.73,0001.20
2022-07-04 02:58:00,,0825.4,5.01,0.00,29.5,28.6,00.0,38.1,31.5,24.0,0000.0,0002.81,0001.71,0001.22
2022-07-04 02:59:00,,0825.4,5.00,0.00,29.5,28.6,00.0,38.2,31.5,24.0,0000.0,0002.99,0001.68,0001.23
